GW1174 Weather Reports


time (UTC)temp
C
wind
direction
speed
KPH
gust
KPH
rain 1hr
cm
rain 24hr
cm
rain mn
cm
humidity
%
barometer
mb
20260510102516 19 135 3.2 9.7 0.00 0.00 0.00 56 1011.7
20260510101516 20 90 6.4 17.7 0.00 0.00 0.00 52 1011.8
20260510100516 20 90 3.2 11.3 0.00 0.00 0.00 53 1012.0
20260510095515 20 90 6.4 12.9 0.00 0.00 0.00 53 1012.2
20260510094516 20 158 6.4 14.5 0.00 0.00 0.00 55 1012.1
20260510093515 20 158 8.0 14.5 0.00 0.00 0.00 55 1012.4
20260510092515 20 135 3.2 6.4 0.00 0.00 0.00 55 1012.5
20260510091537 20 158 3.2 8.0 0.00 0.00 0.00 60 1012.5
20260510090537 19 180 1.6 4.8 0.00 0.00 0.00 62 1012.6
20260510085517 19 158 3.2 9.7 0.00 0.00 0.00 63 1012.6
20260510084518 18 225 3.2 6.4 0.00 0.00 0.00 65 1012.7
20260510083537 17 0.0 4.8 0.00 0.00 0.00 67 1012.8
20260510082538 17 23 3.2 8.0 0.00 0.00 0.00 65 1012.8
20260510081517 17 45 1.6 4.8 0.00 0.00 0.00 68 1013.0
20260510080518 17 0.0 6.4 0.00 0.00 0.00 68 1013.0
20260510075537 16 0.0 3.2 0.00 0.00 0.00 68 1013.1
20260510074517 16 0.0 3.2 0.00 0.00 0.00 70 1013.4
20260510073517 15 68 1.6 6.4 0.00 0.00 0.00 71 1013.3
20260510072517 15 45 3.2 6.4 0.00 0.00 0.00 70 1013.3
20260510071517 16 68 1.6 4.8 0.00 0.00 0.00 69 1013.4
20260510070517 15 0.0 3.2 0.00 0.00 0.00 70 1013.3
20260510065517 15 0.0 3.2 0.00 0.00 0.00 70 1013.4
20260510064517 14 0.0 3.2 0.00 0.00 0.00 71 1013.5
20260510063537 13 248 1.6 4.8 0.00 0.00 0.00 74 1013.7
20260510062517 13 0.0 9.7 0.00 0.00 0.00 76 1013.7
20260510061517 12 90 1.6 9.7 0.00 0.00 0.00 79 1013.7
20260510060517 11 248 1.6 4.8 0.00 0.00 0.00 83 1013.7
20260510055517 10 248 1.6 4.8 0.00 0.00 0.00 84 1013.7
20260510054537 10 180 1.6 6.4 0.00 0.00 0.00 86 1013.8
20260510053517 9 248 1.6 4.8 0.00 0.00 0.00 87 1013.9
20260510052517 8 0.0 3.2 0.00 0.00 0.00 88 1014.1
20260510051517 8 68 1.6 8.0 0.00 0.00 0.00 90 1013.9
20260510050537 8 0.0 3.2 0.00 0.00 0.00 90 1014.0
20260510045517 7 158 1.6 3.2 0.00 0.00 0.00 90 1014.2
20260510044537 7 158 1.6 3.2 0.00 0.00 0.00 89 1014.1
20260510043517 7 0.0 3.2 0.00 0.00 0.00 89 1014.1
20260510042517 7 0.0 3.2 0.00 0.00 0.00 89 1014.2
20260510041517 6 0.0 0.0 0.00 0.00 0.00 89 1014.2
20260510040517 6 0.0 1.6 0.00 0.00 0.00 89 1014.2
20260510035517 6 0.0 0.0 0.00 0.00 0.00 88 1014.3
20260510034517 7 0.0 0.0 0.00 0.00 0.00 88 1014.4
20260510033537 7 0.0 1.6 0.00 0.00 0.00 88 1014.5
20260510032540 7 0.0 3.2 0.00 0.00 0.00 87 1014.3
20260510031517 7 0.0 0.0 0.00 0.00 0.00 87 1014.4
20260510030537 7 0.0 1.6 0.00 0.00 0.00 87 1014.3
20260510025517 7 0.0 6.4 0.00 0.00 0.00 87 1014.4
20260510024517 7 0.0 4.8 0.00 0.00 0.00 86 1014.4
20260510023537 8 0.0 4.8 0.00 0.00 0.00 86 1014.6
20260510022557 8 0.0 3.2 0.00 0.00 0.00 85 1014.6
20260510021537 8 0.0 4.8 0.00 0.00 0.00 85 1014.6
20260510020517 8 0.0 6.4 0.00 0.00 0.00 85 1014.6
20260510015517 8 0 1.6 6.4 0.00 0.00 0.00 84 1014.6
20260510014517 8 68 1.6 6.4 0.00 0.00 0.00 84 1014.6
20260510013517 9 0.0 1.6 0.00 0.00 0.00 84 1014.9
20260510012517 9 248 1.6 8.0 0.00 0.00 0.00 84 1014.8
20260510011516 9 68 1.6 4.8 0.00 0.00 0.00 84 1014.7
20260510010516 9 68 1.6 6.4 0.00 0.00 0.00 83 1014.9
20260510005516 9 0.0 4.8 0.00 0.00 0.00 83 1015.1
20260510004517 9 0.0 1.6 0.00 0.00 0.00 82 1015.3
20260510003540 9 0.0 3.2 0.00 0.00 0.00 82 1015.3
20260510002517 10 0.0 3.2 0.00 0.00 0.00 82 1015.6
20260510001516 10 0.0 1.6 0.00 0.00 0.00 82 1015.5
20260510000517 10 0.0 6.4 0.00 0.00 0.00 82 1015.7
20260509235516 10 0.0 4.8 0.00 0.00 0.00 81 1015.9
20260509234537 10 68 1.6 6.4 0.00 0.00 0.00 81 1015.9
20260509233516 10 0.0 6.4 0.00 0.00 0.00 80 1016.3
20260509232516 10 0.0 3.2 0.00 0.00 0.00 79 1016.2
20260509231516 10 0.0 3.2 0.00 0.00 0.00 79 1016.2
20260509230516 11 0.0 1.6 0.00 0.00 0.00 78 1016.3
20260509225516 11 158 1.6 4.8 0.00 0.00 0.00 78 1016.2
20260509224516 11 158 1.6 8.0 0.00 0.00 0.00 78 1016.2
20260509223536 11 248 1.6 6.4 0.00 0.00 0.00 78 1016.3
20260509222516 11 0.0 3.2 0.00 0.00 0.00 78 1016.1
20260509221516 11 158 1.6 4.8 0.00 0.00 0.00 77 1016.3
20260509220516 11 158 1.6 3.2 0.00 0.00 0.00 77 1016.3
20260509215517 11 338 1.6 4.8 0.00 0.00 0.00 77 1016.2
20260509214517 11 0.0 6.4 0.00 0.00 0.00 77 1016.1
20260509213537 12 0.0 3.2 0.00 0.00 0.00 77 1016.4
20260509212537 12 158 1.6 6.4 0.00 0.00 0.00 77 1016.5
20260509211517 12 0.0 1.6 0.00 0.00 0.00 77 1016.6
20260509210517 12 0.0 6.4 0.00 0.00 0.00 77 1016.6
20260509205517 12 113 1.6 8.0 0.00 0.00 0.00 77 1016.5
20260509204517 12 0.0 4.8 0.00 0.00 0.00 78 1016.5
20260509203517 12 0.0 0.0 0.00 0.00 0.00 79 1016.7
20260509202517 12 0.0 0.0 0.00 0.00 0.00 79 1016.5
20260509201537 12 0.0 0.0 0.00 0.00 0.00 78 1016.4
20260509200537 12 0.0 0.0 0.00 0.00 0.00 77 1016.4
20260509195517 12 0.0 0.0 0.00 0.00 0.00 76 1016.5
20260509194517 12 0.0 0.0 0.00 0.00 0.00 75 1016.3
20260509193517 13 0.0 0.0 0.00 0.00 0.00 75 1016.3
20260509192517 13 0.0 0.0 0.00 0.00 0.00 74 1016.2
20260509191516 13 0.0 0.0 0.00 0.00 0.00 73 1016.1
20260509190537 13 0.0 0.0 0.00 0.00 0.00 72 1016.0
20260509185517 14 0.0 0.0 0.00 0.00 0.00 70 1015.9
20260509184516 15 0.0 0.0 0.00 0.00 0.00 69 1015.8
20260509183516 16 0.0 0.0 0.00 0.00 0.00 67 1015.8
20260509182516 16 0.0 0.0 0.00 0.00 0.00 66 1015.7
20260509181516 17 0.0 0.0 0.00 0.00 0.00 64 1015.8
20260509180537 17 0.0 0.0 0.00 0.00 0.00 61 1015.5
20260509175517 17 0.0 0.0 0.00 0.00 0.00 61 1015.5
20260509174517 18 0.0 1.6 0.00 0.00 0.00 59 1015.6
20260509173536 18 0.0 3.2 0.00 0.00 0.00 58 1015.5
20260509172537 18 0.0 3.2 0.00 0.00 0.00 57 1015.4
20260509171516 18 68 1.6 6.4 0.00 0.00 0.00 57 1015.5
20260509170516 19 0.0 3.2 0.00 0.00 0.00 57 1015.6
20260509165519 20 0.0 3.2 0.00 0.00 0.00 55 1015.8
20260509164516 20 0.0 1.6 0.00 0.00 0.00 55 1015.8
20260509163516 19 0.0 4.8 0.00 0.00 0.00 53 1015.7
20260509162516 20 0.0 1.6 0.00 0.00 0.00 51 1015.7
20260509161516 20 0.0 3.2 0.00 0.00 0.00 52 1015.7
20260509160516 20 0.0 3.2 0.00 0.00 0.00 56 1016.0
20260509155516 20 0.0 3.2 0.00 0.00 0.00 54 1015.9
20260509154516 21 45 1.6 6.4 0.00 0.00 0.00 52 1016.0
20260509153516 21 248 1.6 6.4 0.00 0.00 0.00 52 1016.2
20260509152516 21 180 1.6 3.2 0.00 0.00 0.00 50 1016.1
20260509151516 20 0 1.6 4.8 0.00 0.00 0.00 49 1016.1
20260509150516 20 315 1.6 4.8 0.00 0.00 0.00 51 1016.2
20260509145516 20 293 3.2 11.3 0.00 0.00 0.00 54 1016.4
20260509144516 20 23 1.6 4.8 0.00 0.00 0.00 53 1016.5
20260509143516 21 248 4.8 11.3 0.00 0.00 0.00 50 1016.6
20260509142556 20 203 1.6 4.8 0.00 0.00 0.00 51 1016.6
20260509141516 20 270 3.2 6.4 0.00 0.00 0.00 52 1016.6
20260509140516 19 0.0 4.8 0.00 0.00 0.00 58 1016.7
20260509135516 19 293 1.6 3.2 0.00 0.00 0.00 55 1016.9
20260509134536 20 0.0 4.8 0.00 0.00 0.00 56 1017.0
20260509133516 19 248 1.6 6.4 0.00 0.00 0.00 55 1017.1
20260509132536 19 270 3.2 6.4 0.00 0.00 0.00 61 1017.3
20260509131516 18 270 4.8 9.7 0.00 0.00 0.00 57 1017.4
20260509130516 18 270 4.8 9.7 0.00 0.00 0.00 58 1017.7
20260509125516 18 248 4.8 9.7 0.00 0.00 0.00 58 1017.6
20260509124556 18 315 3.2 9.7 0.00 0.00 0.00 59 1017.5
20260509123516 18 338 1.6 6.4 0.00 0.00 0.00 57 1017.6
20260509122516 19 225 4.8 12.9 0.00 0.00 0.00 58 1017.9
20260509121636 18 315 1.6 4.8 0.00 0.00 0.00 60 1017.8
20260509120516 18 315 1.6 4.8 0.00 0.00 0.00 58 1018.0
20260509115516 18 293 1.6 4.8 0.00 0.00 0.00 63 1018.0
20260509114516 17 315 3.2 8.0 0.00 0.00 0.00 61 1018.1
20260509113516 19 113 1.6 6.4 0.00 0.00 0.00 64 1018.2
20260509112516 18 158 3.2 9.7 0.00 0.00 0.00 59 1018.3
20260509111516 18 0.0 3.2 0.00 0.00 0.00 60 1018.2
20260509110536 17 45 3.2 12.9 0.00 0.00 0.00 63 1018.3
20260509105516 17 0.0 3.2 0.00 0.00 0.00 62 1018.5
20260509104516 17 0.0 6.4 0.00 0.00 0.00 64 1018.6
20260509103515 17 248 4.8 9.7 0.00 0.00 0.00 65 1018.7